Location: Stamford Observatory
(41.1241°N, 73.5498°W)
Time: 10:54:30
(UTC-04:00)

IRS-P3 - Visible Passes

Search period start: 06 May 2016 00:00
Search period end: 16 May 2016 00:00
Orbit: 814 x 820 km, 98.7° (Epoch: 04 May)

Date Brightness Start Highest point End Pass type
(mag) Time Alt. Az. Time Alt. Az. Time Alt. Az.
06 May 4.2 02:24:14 10° NNE 02:29:33 70° ESE 02:29:36 70° ESE visible
06 May 5.9 04:05:46 10° NNW 04:08:58 16° WNW 04:10:53 14° W visible
07 May 4.8 02:02:45 10° NNE 02:07:45 44° E 02:07:45 44° E visible
07 May 5.4 03:43:21 10° NNW 03:47:35 25° WNW 03:49:03 22° W visible
08 May 5.5 01:41:31 10° NE 01:45:54 28° E 01:45:54 28° E visible
08 May 4.9 03:21:15 10° N 03:26:07 37° WNW 03:27:12 34° W visible
09 May 6.1 01:20:40 10° NE 01:24:02 18° E 01:24:02 18° E visible
09 May 4.2 02:59:21 10° N 03:04:35 57° WNW 03:05:20 52° WSW visible
10 May 6.6 01:01:06 10° ENE 01:02:11 11° E 01:02:11 11° E visible
10 May 3.9 02:37:37 10° NNE 02:42:59 89° WNW 02:43:29 74° SSW visible
10 May 6.2 04:20:02 10° NW 04:22:11 13° WNW 04:24:21 10° W visible
11 May 4.3 02:16:02 10° NNE 02:21:18 58° E 02:21:38 57° ESE visible
11 May 5.8 03:57:11 10° NNW 04:00:51 19° WNW 04:02:55 15° W visible
12 May 5.1 01:54:39 10° NNE 01:59:34 37° E 01:59:46 37° ESE visible
12 May 5.3 03:34:55 10° N 03:39:26 29° WNW 03:41:04 24° W visible
13 May 5.7 01:33:31 10° NE 01:37:46 24° E 01:37:54 24° E visible
13 May 4.7 03:12:54 10° N 03:17:56 44° WNW 03:19:12 37° WSW visible
14 May 6.3 01:12:56 10° ENE 01:15:53 15° E 01:16:03 15° E visible
14 May 4.1 02:51:04 10° N 02:56:22 68° WNW 02:57:20 56° SW visible
15 May 4.0 02:29:23 10° NNE 02:34:45 78° ESE 02:35:29 65° SSE visible
15 May 6.1 04:11:13 10° NNW 04:14:04 15° WNW 04:16:46 10° W visible
